Location: Unspecified
(0.0000°N, 0.0000°E)
Time: 19:12:14
(UTC+01:00)

DELTA 2 R/B (1) - Visible Passes

Search period start: 28 January 2015 00:00
Search period end: 07 February 2015 00:00
Orbit: 791 x 803 km, 39.6° (Epoch: 27 January)

Date Brightness Start Highest point End Pass type
(mag) Time Alt. Az. Time Alt. Az. Time Alt. Az.
28 Jan 4.6 19:43:12 10° WNW 19:48:37 50° SW 19:54:03 10° SSE visible
29 Jan 4.3 06:34:43 10° SW 06:40:10 57° SE 06:45:36 10° ENE visible
30 Jan 4.5 06:04:09 10° SSW 06:09:30 50° SE 06:14:52 10° ENE visible
31 Jan 4.6 05:33:35 10° SSW 05:38:50 44° SE 05:44:07 10° ENE visible
31 Jan 6.7 20:01:59 10° SW 20:03:22 11° SW 20:04:24 10° SSW visible
01 Feb 4.7 05:05:51 27° S 05:08:10 39° SE 05:13:20 10° ENE visible
02 Feb 5.2 04:38:54 30° ESE 04:38:54 30° ESE 04:42:32 10° ENE visible
02 Feb 4.3 06:19:49 14° W 06:23:54 33° NW 06:28:47 10° NNE visible
03 Feb 6.4 04:11:38 10° ENE 04:11:38 10° ENE 04:11:42 10° ENE visible
03 Feb 4.0 05:52:32 36° WNW 05:53:13 37° NW 05:58:17 10° NNE visible
04 Feb 4.8 05:24:58 27° N 05:24:58 27° N 05:27:45 10° NNE visible
05 Feb 6.1 04:57:05 10° NNE 04:57:05 10° NNE 04:57:11 10° NNE visible
